Location: Columbia
(38.9520°N, 92.3340°W)
Time: 10:54:26
(UTC-05:00)

Cosmos 1633 - Visible Passes

Search period start: 29 April 2016 00:00
Search period end: 09 May 2016 00:00
Orbit: 476 x 495 km, 82.5° (Epoch: 28 April)

Date Brightness Start Highest point End Pass type
(mag) Time Alt. Az. Time Alt. Az. Time Alt. Az.
29 Apr 4.8 22:59:02 10° N 23:00:33 23° N 23:00:33 23° N visible
30 Apr 4.3 22:34:40 10° N 22:36:32 27° NNE 22:36:32 27° NNE visible
01 May 4.2 22:10:28 10° NNE 22:12:31 25° NE 22:12:31 25° NE visible
01 May 5.8 23:46:50 10° WNW 23:46:55 10° WNW 23:46:55 10° WNW visible
02 May 4.4 21:46:30 10° NNE 21:48:31 19° ENE 21:48:31 19° ENE visible
02 May 5.2 23:21:27 10° NW 23:22:55 17° WNW 23:22:55 17° WNW visible
03 May 4.7 21:23:00 10° NE 21:24:32 13° ENE 21:24:32 13° ENE visible
03 May 4.4 22:56:34 10° NNW 22:58:56 28° WNW 22:58:56 28° WNW visible
04 May 3.3 22:31:54 10° NNW 22:34:58 51° WNW 22:34:58 51° WNW visible
05 May 2.4 22:07:24 10° N 22:11:00 82° ENE 22:11:00 82° ENE visible
06 May 2.8 21:43:02 10° N 21:46:33 46° E 21:47:05 42° ESE visible
07 May 3.6 21:18:52 10° NNE 21:22:01 28° ENE 21:23:10 23° ESE visible
07 May 5.2 22:54:49 10° NW 22:56:48 14° W 22:57:35 14° WSW visible
08 May 4.3 20:54:57 10° NNE 20:57:27 17° ENE 20:59:17 13° ESE visible
08 May 4.6 22:29:34 10° NW 22:32:28 23° W 22:33:41 19° WSW visible
